Flag for U.S.A. Weather past 2 weeks in Asheville, North Carolina, U.S.A.

Now
69 °F

Broken clouds.


Feels Like: 69 °F
Forecast: 67 / 81 °F
Wind: 5 mph from North

Location: Asheville Regional Airport

Current Time: Jul 23, 2014 at 9:42:32 AM

Latest Report: Jul 23, 2014 at 9:01 AM


Visibility: 10 mi

Pressure: 30.19 "Hg

Humidity: 87%

Dew point: 65 °F

Location of AshevilleLocation

Historic Weather in Asheville — Graph

°F

Asheville temperature yesterday

Maximum temperature yesterday: 75 °F (at 12:54 PM)
Minimum temperature yesterday: 66 °F (at 2:54 AM)
Average temperature yesterday: 70 °F

Past Weeks' High & Low Weather Summary

 TemperatureHumidityPressure
High86 °F (Jul 8, 2:54 PM)100% (Jul 10, 6:03 AM)30.30 "Hg (Jul 10, 6:03 AM)
Low58 °F (Jul 8, 6:54 AM)39% (Jul 8, 4:54 PM)29.79 "Hg (Jul 15, 4:54 PM)
Average71 °F79%30.07 "Hg
* Reported Jul 8 6:54 AM — Jul 23 6:56 AM, Asheville, Weather by CustomWeather, © 2014

Note: Actual official high and low records may vary slightly from our data, if they occured in-between our weather recording intervals... More about our weather records

Advertising

Asheville weather history for July 9, 2014

 ConditionsComfort  
Time TempWeatherWind HumidityBarometerVisibility
12:54 AM
Jul 9
68 °FPartly cloudy.No wind90%30.00 "Hg10 mi
1:54 AM67 °FPassing clouds.No wind93%29.99 "Hg10 mi
2:54 AM67 °FPassing clouds.No wind93%29.97 "Hg10 mi
3:54 AM68 °FOvercast.5 mph90%29.96 "Hg10 mi
8:54 AM69 °FPassing clouds.6 mph87%30.03 "Hg10 mi
9:54 AM70 °FPartly sunny.3 mph84%30.01 "Hg10 mi
10:54 AM73 °FPassing clouds.No wind79%30.02 "Hg10 mi
11:54 AM74 °FSunny.3 mph76%30.03 "Hg10 mi
12:54 PM76 °FPassing clouds.No wind64%30.03 "Hg10 mi
1:54 PM76 °FOvercast.3 mph69%30.01 "Hg10 mi
2:54 PM78 °FPartly sunny.6 mph60%30.01 "Hg10 mi
3:54 PM76 °FOvercast.8 mph64%29.99 "Hg10 mi
4:54 PM80 °FPassing clouds.7 mph58%29.97 "Hg10 mi
5:54 PM79 °FScattered clouds.5 mph60%29.97 "Hg10 mi
6:54 PM79 °FScattered clouds.3 mph58%29.98 "Hg10 mi
7:54 PM78 °FBroken clouds.No wind62%29.98 "Hg10 mi
8:54 PM75 °FMostly cloudy.No wind76%29.99 "Hg10 mi
9:54 PM67 °FStrong thunderstorms. Mostly cloudy.10 mph90%30.04 "Hg10 mi
10:54 PM64 °FHeavy rain. Mostly cloudy.No windN/A30.08 "Hg10 mi
11:54 PM64 °FLight rain. Overcast.No windN/A30.07 "Hg10 mi
Weather by CustomWeather, © 2014

See weather overviewHow to use our weather pages